Hourly Data Report for September 15, 2016

All times are specified in Local Standard Time (LST). Add 1 hour to adjust for Daylight Saving Time where and when it is observed.

CORAL HARBOUR A
NUNAVUT

64°11'36.000" N
83°21'34.000" W
62.20 m
2301002
71915
YZS

Download Data

Hourly Data (September 2016)
Hourly Data Report for September 15, 2016
Temp Definition
°C
Dew Point Temp Definition
°C
Rel Hum Definition
%
Wind Dir Definition
10's deg

Wind Spd Definition
km/h
Visibility Definition
km
Stn Press Definition
kPa
Hmdx Definition


Wind Chill Definition


Weather Definition


TIME
00:00 Legend Double Dagger -4.5 -6.7 85 31 8 24.1 100.41   -8 LegendNANA
01:00 Legend Double Dagger -4.0 -6.5 83 27 3 24.1 100.49   -5 Clear
02:00 Legend Double Dagger -3.2 -5.4 85 29 18 24.1 100.52   -9 LegendNANA
03:00 Legend Double Dagger -3.4 -5.4 86 29 11 24.1 100.58   -8 LegendNANA
04:00 Legend Double Dagger -3.5 -6.8 78 30 13 24.1 100.60   -8 Clear
05:00 Legend Double Dagger -4.2 -7.3 79 27 7 24.1 100.64   -7 LegendNANA
06:00 Legend Double Dagger -5.0 -7.5 83 33 12 24.1 100.68   -10 LegendNANA
07:00 Legend Double Dagger -3.7 -7.0 78 30 12 24.1 100.68   -8 Clear
08:00 Legend Double Dagger -2.2 -6.4 73 26 7 24.1 100.70   -5 LegendNANA
09:00 Legend Double Dagger -1.0 -6.6 66 26 21 24.1 100.72   -7 LegendNANA
10:00 Legend Double Dagger -0.2 -7.5 58 28 20 24.1 100.74   -5 Mostly Cloudy
11:00 Legend Double Dagger 0.4 -8.4 52 29 17 24.1 100.75     LegendNANA
12:00 Legend Double Dagger 0.4 -7.9 54 30 22 24.1 100.73     LegendNANA
13:00 Legend Double Dagger 0.3 -7.3 57 31 18 24.1 100.73     Mostly Cloudy
14:00 Legend Double Dagger 0.6 -8.4 51 28 12 24.1 100.71     LegendNANA
15:00 Legend Double Dagger 1.1 -8.2 50 26 21 24.1 100.71     LegendNANA
16:00 Legend Double Dagger 0.4 -8.4 52 28 23 24.1 100.69     Mostly Cloudy
17:00 Legend Double Dagger 0.0 -6.9 60 33 13 24.1 100.69   -4 LegendNANA
18:00 Legend Double Dagger -0.3 -6.9 61 33 15 24.1 100.69   -5 LegendNANA
19:00 Legend Double Dagger -0.6 -7.4 60 32 18 24.1 100.73   -6 Cloudy
20:00 Legend Double Dagger -1.2 -6.8 66 31 11 24.1 100.73   -5 LegendNANA
21:00 Legend Double Dagger -2.8 -6.3 77 33 8 24.1 100.73   -6 LegendNANA
22:00 Legend Double Dagger -2.4 -5.6 79 31 7 24.1 100.68   -5 Mainly Clear
23:00 Legend Double Dagger -1.9 -5.4 77 32 6 24.1 100.65   -4 LegendNANA

Notes on Data Quality.

Legend

  • E = Estimated
  • M = Missing
  • NA = Not Available
  • ‡ = Partner data that is not subject to review by the National Climate Archives
Date modified: